Location: Dompnac
(44.5644°N, 4.1026°E)
Time: 09:47:23
(UTC+00:00)

ATLAS 2AS CENTAUR R/B - Pass Details

Date: 19 September 2020
Orbit: 939 x 1273 km, 63.7° (Epoch: 27 October)

Event Time Altitude Azimuth Distance (km) Brightness Sun altitude
Rises 22:07:19 0° 245° (WSW) 4,213 5.9 -40.2°
Reaches altitude 10° 22:10:20 10° 253° (WSW) 3,260 5.3 -40.5°
Maximum altitude 22:17:45 41° 321° (NW) 1,771 4.0 -41.1°
Drops below altitude 10° 22:25:04 10° 30° (NNE) 3,210 5.5 -41.7°
Sets 22:28:02 0° 38° (NE) 4,142 6.1 -41.9°
